#timestamp,LO_Frequency,Hit,StdDev 
1653076815.0,286046998.9,N
1653076815.9,286046998.9,N
1653076835.8,286046998.5,N
1653076855.6,286047000.4,N
1653076875.4,286047001.0,N
1653076895.3,286047002.2,N
1653076915.1,286047002.3,N
1653076935.9,286047002.5,N
1653076955.7,286047003.9,N
1653076975.5,286047001.7,N
1653076995.4,286047000.2,N
1653077015.2,286047002.1,N
1653077035.0,286047002.3,N
1653077035.9,286047002.3,N
1653077055.8,286047002.2,N
1653077075.6,286047002.5,N
1653077095.5,286047001.2,N
1653077115.3,286047000.4,N
1653077135.1,286047002.3,N
1653077155.9,286047001.6,N
1653077175.7,286047004.1,N
1653077195.5,286047002.2,N
1653077215.4,286047001.8,N
1653077235.2,286047003.9,N
1653077255.1,286047003.8,N
1653077256.0,286047003.8,N
1653077275.8,286047003.6,N
1653077295.6,286047001.8,N
1653077315.5,286047001.6,N
1653077335.3,286047001.5,N
1653077355.1,286047004.0,N
1653077375.9,286047001.9,N
1653077395.7,286047001.3,N
1653077415.6,286047002.6,N
1653077435.4,286047001.6,N
1653077455.2,286047000.2,N
1653077475.1,286047000.2,N
1653077476.0,286047000.2,N
1653077495.8,286047000.2,N
1653077515.7,286047002.7,N
1653077535.5,286047002.8,N
1653077555.3,286047000.4,N
1653077575.2,286046999.8,N
1653077595.9,286047000.1,N
1653077615.7,286047000.0,N
1653077635.6,286046999.9,N
1653077655.4,286047000.2,N
1653077675.3,286047000.1,N
1653077695.1,286046999.7,N
1653077696.0,286046999.7,N
1653077715.8,286047002.3,N
1653077735.7,286047000.1,N
1653077755.5,286047000.2,N
1653077775.3,286046999.9,N
1653077795.2,286047000.2,N
1653077815.0,286047000.0,N
1653077815.9,286047000.0,N
1653077835.8,286047000.4,N
1653077855.6,286046999.9,N
1653077875.4,286047000.7,N
1653077895.3,286047000.0,N
1653077915.1,286047002.0,N
1653077935.8,286047000.4,N
1653077955.8,286047000.4,N
1653077975.6,286047000.0,N
1653077995.4,286047002.8,Y
1653078015.3,286047000.1,P
1653078035.1,286047000.5,N
1653078055.8,286047000.2,N
1653078075.7,286047002.6,Y
1653078095.5,286047002.3,P
1653078115.4,286047002.3,N
1653078135.2,286047000.0,N
1653078155.0,286046998.8,N
1653078155.9,286046998.8,N
1653078175.8,286046999.5,N
1653078195.6,286046996.6,N
1653078215.5,286046999.5,N
1653078235.3,286046996.8,N
1653078255.1,286046997.8,N
1653078275.9,286046998.9,N
1653078295.7,286046999.3,N
1653078315.5,286046997.5,N
1653078335.4,286046997.3,N
1653078355.2,286046997.7,N
1653078375.1,286046995.4,N
1653078376.0,286046995.4,N
1653078395.8,286046997.6,N
1653078415.6,286046995.4,N
1653078435.5,286046997.2,N
1653078455.3,286046995.3,N
1653078475.2,286046996.1,N
1653078495.9,286046997.9,N
1653078515.7,286046995.5,N
1653078535.6,286046997.7,N
1653078555.4,286046996.7,N
1653078575.2,286046996.7,N
1653078595.1,286046997.8,N
1653078596.0,286046997.8,N
1653078615.8,286046999.4,N
1653078635.7,286046996.9,N
1653078655.5,286046997.0,N
1653078675.3,286046997.1,N
1653078695.2,286046997.9,N
1653078715.0,286046995.3,Y
1653078715.9,286046995.3,P
1653078735.8,286046998.4,N
1653078755.6,286047000.7,N
1653078775.4,286046998.5,N
1653078795.3,286047000.8,N
1653078815.1,286047001.0,N
1653078835.9,286047000.4,N
1653078855.7,286047000.9,N
1653078875.5,286047000.9,N
1653078895.4,286047000.5,N
1653078915.2,286047001.2,N
1653078935.0,286046999.1,N
1653078936.0,286046999.1,N
1653078955.8,286046997.8,N
1653078975.6,286046997.2,N
1653078995.5,286046997.9,N
1653079015.3,286046997.9,N
1653079035.1,286046997.8,N
1653079055.9,286046998.0,N
1653079075.7,286046997.3,N
1653079095.6,286046999.0,N
1653079115.4,286046998.8,N
1653079135.2,286046998.3,N
1653079155.1,286046998.9,N
1653079156.0,286046998.9,N
1653079175.8,286046999.5,N
1653079195.7,286046997.5,N
1653079215.5,286046997.4,N
1653079235.3,286046997.3,N
1653079255.2,286046996.7,N
1653079275.9,286046997.2,N
1653079295.7,286046997.0,N
1653079315.6,286046997.5,N
1653079335.4,286046997.3,N
1653079355.3,286046997.8,N
1653079375.1,286046997.2,N
1653079376.0,286046997.2,N
1653079395.8,286046996.9,N
1653079415.7,286046997.1,N
1653079435.5,286046996.5,Y
1653079455.3,286046998.2,P
1653079475.2,286046998.5,P
1653079495.0,286047000.5,N
1653079495.9,286047000.5,N
1653079515.8,286046998.4,N
1653079535.6,286046999.0,N
1653079555.4,286046998.7,N
1653079575.3,286047001.0,N
1653079595.1,286046998.4,N
1653079615.9,286046998.7,N
1653079635.7,286046999.3,N
1653079655.5,286046998.9,N
1653079675.4,286047001.1,N
1653079695.2,286047000.3,N
1653079715.0,286046998.1,N
1653079715.9,286046998.1,N
1653079735.8,286047001.1,N
1653079755.6,286046998.1,N
1653079775.5,286046996.6,Y
1653079795.3,286047000.8,P
1653079815.1,286046998.2,N
1653079835.9,286046998.9,N
1653079855.7,286046999.5,N
1653079875.5,286046998.1,N
1653079895.4,286046998.9,N
1653079915.2,286046999.1,N
1653079935.1,286046997.5,Y
1653079936.0,286046997.5,P
1653079955.8,286046996.7,P
1653079975.6,286046996.6,P
1653079995.5,286046996.5,Y
1653080015.3,286046999.9,P
1653080035.2,286047000.0,N
1653080055.9,286047001.6,N
1653080075.7,286047002.0,N
1653080095.6,286047001.6,N
1653080115.4,286047002.7,N
1653080135.2,286047000.5,N
1653080155.1,286047000.5,N
1653080156.0,286047000.5,N
1653080175.8,286046998.5,N
1653080195.7,286047000.7,N
1653080215.5,286047002.5,N
1653080235.3,286047002.0,N
1653080255.2,286047001.5,N
1653080275.0,286047002.6,N
1653080275.9,286047002.6,N
1653080295.7,286047002.1,N
1653080315.6,286046999.7,N
1653080335.4,286046999.7,N
1653080355.3,286047002.1,N
1653080375.1,286047000.1,N
1653080376.0,286047000.1,N
1653080395.8,286047002.2,N
